KHWDKLVK

Guest
Details From KHWD - Hayward Executive
To KLVK - Livermore Muni
Flight Number -
Tags generated
Created
Modified
Stats Distance 17 nm / 31 km
Max Altitude 1,800 ft / 549 m
Waypoints 3
Social Downloads 1
Likes 0
Share VATSIM

Download

Looking for another format? Having issues loading an existing format? Contact us
Advertisement - Login to hide

Notes

Basic altitude profile: - Ascent Rate: 800ft/min - Ascent Speed: 80kts - Cruise Altitude: 3000ft - Cruise Speed: 120kts - Descent Rate: 800ft/min - Descent Speed: 80kts

Route

KHWD DECOT KLVK

ID Type Via Altitude Latitude Longitude Leg Dist Tot Dist Heading (true) Name
O KHWD APT - 0 ft / 0 m 37.65925˚ -122.12193˚ - 0 nm - Hayward Executive
DECOT FIX - 1,800 ft / 549 m 37.60604˚ -122.04875˚ 4 nm 4 nm 133° / 133° -
O KLVK APT - 0 ft / 0 m 37.69318˚ -121.82037˚ 12 nm 16 nm 64° / 64° Livermore Muni

Altitude Profile

Advertisement - Login to hide

KHWD

Details ICAO KHWD (HWD)
Name Hayward Executive
Region United States
Timezone America/Los_Angeles (UTC-7.0)
Stats Elevation 52 ft / 16 m (AMSL)
Location 37.659252° -122.121935°
Runways 2
Magnetic Variation 13.391° E

METAR

KHWD 251854Z 28009KT 10SM FEW022 BKN042 OVC049 16/10 A3012 RMK AO2 SLP209 T01610100

Decode

TAF

Not found

Departure Runways

ID Width Length Bearing (true) Bearing (mag) Surface Threshold Offset Overrun Length
10L 75 ft / 23 m 3,104 ft / 946 m 119.95° 106.56° Asphalt 0 ft / 0 m 0 ft / 0 m
10R 151 ft / 46 m 5,688 ft / 1,734 m 119.95° 106.56° Asphalt 817 ft / 249 m 0 ft / 0 m
28L 151 ft / 46 m 5,688 ft / 1,734 m 299.96° 286.57° Asphalt 676 ft / 206 m 0 ft / 0 m
28R 75 ft / 23 m 3,104 ft / 946 m 299.96° 286.57° Asphalt 0 ft / 0 m 0 ft / 0 m

KLVK

Details ICAO KLVK (LVK)
Name Livermore Muni
Region United States
Timezone America/Los_Angeles (UTC-7.0)
Stats Elevation 400 ft / 122 m (AMSL)
Location 37.693179° -121.820375°
Runways 2
Magnetic Variation 13.351° E

METAR

KLVK 251853Z 20004KT 10SM BKN043 OVC050 16/11 A3010 RMK AO2 SLP193 T01610106

Decode

TAF

TAF KLVK 251729Z 2518/2618 24008KT P6SM VCSH SCT035 BKN040 FM252100 27010KT P6SM VCSH SCT035 BKN040 FM260400 27007KT P6SM BKN035 BKN050 FM260600 27005KT P6SM BKN030 BKN050 FM261700 26007KT P6SM SCT030 SCT050

Decode

Destination Runways

ID Width Length Bearing (true) Bearing (mag) Surface Threshold Offset Overrun Length
07L 98 ft / 30 m 5,241 ft / 1,598 m 90.57° 77.22° Asphalt 0 ft / 0 m 151 ft / 46 m
07R 75 ft / 23 m 2,694 ft / 821 m 90.58° 77.23° Asphalt 0 ft / 0 m 0 ft / 0 m
25L 75 ft / 23 m 2,694 ft / 821 m 270.59° 257.24° Asphalt 0 ft / 0 m 0 ft / 0 m
25R 98 ft / 30 m 5,241 ft / 1,598 m 270.58° 257.23° Asphalt 0 ft / 0 m 151 ft / 46 m

Approach Navaids

Runway Type Ident Frequency Range Bearing (true) Bearing (mag) Slope Elevation
25R Localiser ILVK 110.50 MHz 18 nm / 33 km 270.56° 257.21° - 365 ft / 111 m (AMSL)
25R Glidescope ILVK 110.50 MHz 10 nm / 19 km 270.57° 257.22° 3.00° 393 ft / 120 m (AMSL)

Popular Alternatives